When you browse on this site, cookies collect data to enhance your experience and personalize the content and advertising you see.
Visit our Privacy Policy to learn more. By continuing to use the site, you agree to this use of cookies and data.
  • In United Kingdom
  • List of Countries
  • For 7 days
  • Water Temperature
  • Satellite Maps
  • Weather Map
  • Weather Widgets
  • user-avatar
    Login

    Hourly Weather Abertridwr

    Today, 19 July, Friday

    Time Temperature Precipitation Wind Pressure Humidity
    00:00 +12°C° 0 mm 3 mps 747 mmHg 95%
    01:00 +13°C° 0 mm 3 mps 747 mmHg 95%
    02:00 +13°C° 0 mm 3 mps 747 mmHg 95%
    03:00 +13°C° 0 mm 3 mps 746 mmHg 95%
    04:00 +13°C° 0.4 mm 3 mps 746 mmHg 96%
    05:00 +13°C° 0.4 mm 3 mps 746 mmHg 96%
    06:00 +13°C° 0.4 mm 3 mps 745 mmHg 97%
    07:00 +14°C° 2.4 mm 4 mps 745 mmHg 97%
    08:00 +14°C° 2.4 mm 4 mps 745 mmHg 97%
    09:00 +15°C° 2.4 mm 5 mps 745 mmHg 97%
    10:00 +16°C° 0.5 mm 6 mps 745 mmHg 95%
    11:00 +17°C° 0.5 mm 7 mps 744 mmHg 94%
    12:00 +18°C° 0.5 mm 7 mps 744 mmHg 92%
    13:00 +20°C° 0.6 mm 8 mps 744 mmHg 90%
    14:00 +20°C° 0.6 mm 8 mps 744 mmHg 89%
    15:00 +20°C° 0.6 mm 8 mps 744 mmHg 87%
    16:00 +20°C° 0.2 mm 8 mps 744 mmHg 86%
    17:00 +18°C° 0.2 mm 8 mps 744 mmHg 85%
    18:00 +18°C° 0.2 mm 7 mps 744 mmHg 83%
    19:00 +17°C° 0.1 mm 7 mps 744 mmHg 85%
    20:00 +16°C° 0.1 mm 6 mps 744 mmHg 87%
    21:00 +16°C° 0.1 mm 5 mps 744 mmHg 89%
    22:00 +16°C° 0.1 mm 6 mps 743 mmHg 90%
    23:00 +15°C° 0.1 mm 6 mps 743 mmHg 91%

    Tomorrow, 20 July, Saturday

    Time Temperature Precipitation Wind Pressure Humidity
    00:00 +15°C° 0.1 mm 6 mps 743 mmHg 93%
    01:00 +15°C° 0.1 mm 6 mps 743 mmHg 94%
    02:00 +15°C° 0.1 mm 6 mps 743 mmHg 95%
    03:00 +14°C° 0.1 mm 6 mps 743 mmHg 96%
    04:00 +15°C° 0.1 mm 5 mps 743 mmHg 96%
    05:00 +15°C° 0.1 mm 5 mps 743 mmHg 95%
    06:00 +15°C° 0.1 mm 4 mps 743 mmHg 95%
    07:00 +17°C° 0.1 mm 4 mps 743 mmHg 93%
    08:00 +17°C° 0.1 mm 4 mps 744 mmHg 90%
    09:00 +18°C° 0.1 mm 4 mps 744 mmHg 87%
    10:00 +19°C° 0.4 mm 5 mps 744 mmHg 84%
    11:00 +20°C° 0.4 mm 5 mps 745 mmHg 80%
    12:00 +20°C° 0.4 mm 5 mps 745 mmHg 77%
    13:00 +21°C° 0.2 mm 5 mps 745 mmHg 75%
    14:00 +21°C° 0.2 mm 5 mps 745 mmHg 73%
    15:00 +21°C° 0.2 mm 5 mps 746 mmHg 72%
    16:00 +20°C° 0.1 mm 5 mps 746 mmHg 74%
    17:00 +19°C° 0.1 mm 5 mps 746 mmHg 76%
    18:00 +19°C° 0.1 mm 4 mps 746 mmHg 78%
    19:00 +17°C° 0 mm 4 mps 747 mmHg 82%
    20:00 +16°C° 0 mm 3 mps 748 mmHg 86%
    21:00 +14°C° 0 mm 2 mps 748 mmHg 90%
    22:00 +14°C° 0 mm 2 mps 749 mmHg 90%
    23:00 +13°C° 0 mm 2 mps 749 mmHg 90%

    Day after tomorrow, 21 July, Sunday

    Time Temperature Precipitation Wind Pressure Humidity
    00:00 +13°C° 0 mm 2 mps 749 mmHg 90%
    01:00 +12°C° 0 mm 2 mps 750 mmHg 90%
    02:00 +12°C° 0 mm 2 mps 750 mmHg 89%
    03:00 +12°C° 0 mm 1 mps 750 mmHg 89%
    04:00 +13°C° 0 mm 1 mps 750 mmHg 89%
    05:00 +14°C° 0 mm 1 mps 751 mmHg 90%
    06:00 +14°C° 0 mm 1 mps 751 mmHg 90%
    07:00 +16°C° 0 mm 2 mps 752 mmHg 86%
    08:00 +17°C° 0 mm 3 mps 752 mmHg 83%
    09:00 +19°C° 0 mm 4 mps 753 mmHg 79%
    10:00 +19°C° 0 mm 4 mps 753 mmHg 76%
    11:00 +20°C° 0 mm 5 mps 753 mmHg 74%
    12:00 +20°C° 0 mm 5 mps 754 mmHg 71%
    13:00 +20°C° 0 mm 5 mps 754 mmHg 71%
    14:00 +20°C° 0 mm 6 mps 754 mmHg 70%
    15:00 +20°C° 0 mm 6 mps 754 mmHg 70%
    16:00 +20°C° 0 mm 5 mps 754 mmHg 72%
    17:00 +19°C° 0 mm 5 mps 754 mmHg 74%
    18:00 +19°C° 0 mm 5 mps 754 mmHg 76%
    19:00 +17°C° 0 mm 4 mps 754 mmHg 81%
    20:00 +16°C° 0 mm 3 mps 755 mmHg 87%
    21:00 +15°C° 0 mm 2 mps 755 mmHg 92%
    22:00 +15°C° 0 mm 2 mps 755 mmHg 93%
    23:00 +15°C° 0 mm 2 mps 755 mmHg 94%

    22 July, Monday

    Time Temperature Precipitation Wind Pressure Humidity
    00:00 +15°C° 0 mm 2 mps 755 mmHg 95%
    01:00 +14°C° 0 mm 2 mps 754 mmHg 95%
    02:00 +14°C° 0 mm 2 mps 754 mmHg 95%
    03:00 +14°C° 0 mm 2 mps 754 mmHg 95%
    04:00 +14°C° 0 mm 2 mps 754 mmHg 94%
    05:00 +15°C° 0 mm 2 mps 754 mmHg 93%
    06:00 +15°C° 0 mm 2 mps 754 mmHg 92%
    07:00 +17°C° 0 mm 2 mps 754 mmHg 87%
    08:00 +18°C° 0 mm 3 mps 754 mmHg 82%
    09:00 +20°C° 0 mm 3 mps 755 mmHg 77%
    10:00 +21°C° 0 mm 4 mps 755 mmHg 74%
    11:00 +22°C° 0 mm 4 mps 755 mmHg 71%
    12:00 +23°C° 0 mm 4 mps 755 mmHg 68%
    13:00 +23°C° 0 mm 4 mps 755 mmHg 67%
    14:00 +23°C° 0 mm 4 mps 754 mmHg 67%
    15:00 +25°C° 0 mm 4 mps 754 mmHg 67%
    16:00 +23°C° 0 mm 4 mps 754 mmHg 70%
    17:00 +22°C° 0 mm 4 mps 754 mmHg 73%
    18:00 +22°C° 0 mm 3 mps 754 mmHg 75%
    19:00 +20°C° 0 mm 3 mps 754 mmHg 80%
    20:00 +18°C° 0 mm 2 mps 753 mmHg 84%
    21:00 +18°C° 0 mm 1 mps 753 mmHg 88%
    22:00 +16°C° 0 mm 1 mps 753 mmHg 88%
    23:00 +16°C° 0 mm 1 mps 753 mmHg 88%

    23 July, Tuesday

    Time Temperature Precipitation Wind Pressure Humidity
    00:00 +15°C° 0 mm 1 mps 753 mmHg 88%
    01:00 +15°C° 0 mm 1 mps 752 mmHg 88%
    02:00 +15°C° 0 mm 1 mps 752 mmHg 88%
    03:00 +15°C° 0 mm 1 mps 752 mmHg 88%
    04:00 +16°C° 0 mm 2 mps 751 mmHg 86%
    05:00 +17°C° 0 mm 2 mps 751 mmHg 83%
    06:00 +17°C° 0 mm 2 mps 750 mmHg 81%
    07:00 +19°C° 0 mm 3 mps 750 mmHg 78%
    08:00 +21°C° 0 mm 3 mps 750 mmHg 75%
    09:00 +22°C° 0 mm 3 mps 750 mmHg 72%
    10:00 +25°C° 0 mm 3 mps 750 mmHg 70%
    11:00 +26°C° 0 mm 3 mps 750 mmHg 68%
    12:00 +27°C° 0 mm 4 mps 749 mmHg 66%
    13:00 +28°C° 0 mm 3 mps 749 mmHg 65%
    14:00 +28°C° 0 mm 3 mps 749 mmHg 65%
    15:00 +28°C° 0 mm 3 mps 748 mmHg 64%
    16:00 +28°C° 0 mm 3 mps 748 mmHg 67%
    17:00 +27°C° 0 mm 3 mps 748 mmHg 71%
    18:00 +27°C° 0 mm 3 mps 747 mmHg 74%
    19:00 +24°C° 0 mm 2 mps 747 mmHg 80%
    20:00 +21°C° 0 mm 2 mps 747 mmHg 85%
    21:00 +19°C° 0 mm 2 mps 747 mmHg 90%
    22:00 +19°C° 0 mm 2 mps 747 mmHg 90%
    23:00 +20°C° 0 mm 1 mps 747 mmHg 91%

    24 July, Wednesday

    Time Temperature Precipitation Wind Pressure Humidity
    00:00 +19°C° 0 mm 1 mps 747 mmHg 91%
    01:00 +19°C° 0 mm 1 mps 746 mmHg 91%
    02:00 +19°C° 0 mm 1 mps 746 mmHg 91%
    03:00 +19°C° 0 mm 1 mps 746 mmHg 91%
    04:00 +19°C° 0 mm 1 mps 746 mmHg 90%
    05:00 +19°C° 0 mm 1 mps 746 mmHg 88%
    06:00 +20°C° 0 mm 1 mps 746 mmHg 87%
    07:00 +20°C° 0 mm 1 mps 746 mmHg 84%
    08:00 +20°C° 0 mm 2 mps 746 mmHg 80%
    09:00 +20°C° 0 mm 2 mps 746 mmHg 76%
    10:00 +20°C° 0.1 mm 2 mps 746 mmHg 77%
    11:00 +20°C° 0.1 mm 2 mps 746 mmHg 77%
    12:00 +21°C° 0.1 mm 1 mps 745 mmHg 77%
    13:00 +22°C° 0 mm 1 mps 745 mmHg 72%
    14:00 +23°C° 0 mm 2 mps 745 mmHg 67%
    15:00 +24°C° 0 mm 2 mps 745 mmHg 62%
    16:00 +23°C° 0.1 mm 2 mps 745 mmHg 68%
    17:00 +21°C° 0.1 mm 2 mps 744 mmHg 73%
    18:00 +21°C° 0.1 mm 3 mps 744 mmHg 79%
    19:00 +19°C° 0.9 mm 2 mps 744 mmHg 84%
    20:00 +19°C° 0.9 mm 1 mps 744 mmHg 90%
    21:00 +18°C° 0.9 mm 1 mps 744 mmHg 96%
    22:00 +18°C° 0.3 mm 1 mps 743 mmHg 96%
    23:00 +16°C° 0.3 mm 1 mps 743 mmHg 96%
    Show more